sat.trackr.live / text

‹ back to catalog

IRIDE-MS2-HEO-8

NORAD 64587 · 2025-135BM

PAYLOAD ACTIVE UNKNOWN

§ Identity

Operator
Country
IT
Launch date
2025-06-23
Launch site
AFWTR
Launch vehicle
Mass (kg)
RCS (m²)

External: N2YO · Heavens-Above · Gunter

§ Orbital elements

Epoch: 2026-09-21T22:00:21.867264Z

Period
96.52 min
Inclination
97.7818°
Eccentricity
0.0002132
Mean motion
14.91962357 rev/d
Perigee alt
590.3 km
Apogee alt
593.3 km
Semi-major
6,970.0 km
B*
1.0783e-4
RAAN
18.1345°
Arg perigee
73.9234°
Mean anomaly
286.2220°
Rev number
6,832

§ Raw data

IRIDE-MS2-HEO-81 64587U 25135BM  26264.91691976  .00001036  00000+0  10783-3 0  99952 64587  97.7818  18.1345 0002132  73.9234 286.2220 14.91962357 68328

JSON: /api/v1/satellites/64587 · /tle

For live sub-satellite position, see the globe view (requires WebGL).

§ Visibility from observer

Set your observer location to see the next 7 days of passes ≥ 10°. The values pass through the URL so the page stays shareable.

No JS? Fill the form by hand. The geolocation button needs JavaScript.

§ Radio — SatNOGS DB

ModeDescriptionDownlinkUplink
FM S-band telemetry 2.265 GHz

1 transmitter · refreshed weekly from db.satnogs.org